sat.trackr.live / text

‹ back to catalog

GEESAT-3 05

NORAD 61015 · 2024-159E

PAYLOAD ACTIVE UNKNOWN

§ Identity

Operator
Country
PRC
Launch date
2024-09-05
Launch site
TAISC
Launch vehicle
Mass (kg)
RCS (m²)

External: N2YO · Heavens-Above · Gunter

§ Orbital elements

Epoch: 2026-05-25T04:31:16.547808Z

Period
97.03 min
Inclination
50.0018°
Eccentricity
0.0013773
Mean motion
14.84121176 rev/d
Perigee alt
606.7 km
Apogee alt
626.0 km
Semi-major
6,994.5 km
B*
2.4002e-4
RAAN
189.9842°
Arg perigee
325.8068°
Mean anomaly
34.1982°
Rev number
9,336

§ Raw data

GEESAT-3 051 61015U 24159E   26145.18838597  .00001799  00000+0  24002-3 0  99972 61015  50.0018 189.9842 0013773 325.8068  34.1982 14.84121176 93366

JSON: /api/v1/satellites/61015 · /tle

For live sub-satellite position, see the globe view (requires WebGL).

§ Visibility from observer

Set your observer location to see the next 7 days of passes ≥ 10°. The values pass through the URL so the page stays shareable.

No JS? Fill the form by hand. The geolocation button needs JavaScript.